Location: Capvern
(43.1036°N, 0.3160°E)
Time: 04:05:08
(UTC+00:00)

Cosmos 1726 - Pass Details

Date: 16 October 2021
Orbit: 479 x 493 km, 82.5° (Epoch: 02 December)

Event Time Altitude Azimuth Distance (km) Brightness Sun altitude
Rises 17:51:40 0° 204° (SSW) 2,524 6.1 -7.6°
Reaches altitude 10° 17:53:51 10° 213° (SSW) 1,650 5.3 -8.0°
Maximum altitude 17:57:14 38° 283° (WNW) 752 3.7 -8.6°
Drops below altitude 10° 18:00:39 10° 352° (N) 1,665 4.8 -9.2°
Sets 18:02:52 0° 1° (N) 2,551 5.7 -9.6°
